,,PressureMeas_1m,,PRMeasQMR101_1,,RHStat155_1m_1,,SRMeasQMS101R_1m,,TAStat155_1m_1,,GenWind_1,,GenWind_1,
2018-11-04, 07:00:06,VALID,917.31,VALID,0.0,VALID,97.677,VALID,84.549,VALID,20.327,VALID,150.0,VALID,0.0,
2018-11-04, 07:01:06,VALID,917.315,VALID,0.0,VALID,97.513,VALID,86.671,VALID,20.307,VALID,185.0,VALID,0.0,
2018-11-04, 07:02:06,VALID,917.347,VALID,0.0,VALID,97.249,VALID,88.933,VALID,20.303,VALID,163.0,VALID,0.0,
2018-11-04, 07:03:06,VALID,917.349,VALID,0.0,VALID,97.339,VALID,95.87,VALID,20.348,VALID,113.0,VALID,0.0,
2018-11-04, 07:04:06,VALID,917.364,VALID,0.0,VALID,97.212,VALID,104.126,VALID,20.34,VALID,118.0,VALID,0.0,
2018-11-04, 07:05:06,VALID,917.374,VALID,0.0,VALID,96.552,VALID,93.854,VALID,20.31,VALID,144.0,VALID,0.0,
2018-11-04, 07:06:06,VALID,917.324,VALID,0.0,VALID,96.432,VALID,93.915,VALID,20.34,VALID,229.0,VALID,0.0,
2018-11-04, 07:07:06,VALID,917.333,VALID,0.0,VALID,96.23,VALID,94.137,VALID,20.404,VALID,234.0,VALID,0.0,
2018-11-04, 07:08:06,VALID,917.345,VALID,0.0,VALID,95.879,VALID,94.438,VALID,20.468,VALID,270.0,VALID,0.0,
2018-11-04, 07:09:06,VALID,917.375,VALID,0.0,VALID,96.492,VALID,96.182,VALID,20.599,VALID,45.0,VALID,0.0,
2018-11-04, 07:10:06,VALID,917.404,VALID,0.0,VALID,96.704,VALID,98.617,VALID,20.618,VALID,71.0,VALID,0.0,
2018-11-04, 07:11:06,VALID,917.437,VALID,0.0,VALID,96.732,VALID,100.194,VALID,20.595,VALID,102.0,VALID,0.0,
2018-11-04, 07:12:06,VALID,917.437,VALID,0.0,VALID,96.581,VALID,102.041,VALID,20.56,VALID,119.0,VALID,0.0,
2018-11-04, 07:13:06,VALID,917.43,VALID,0.0,VALID,96.635,VALID,103.256,VALID,20.569,VALID,139.0,VALID,0.0,
2018-11-04, 07:14:06,VALID,917.453,VALID,0.0,VALID,96.579,VALID,105.526,VALID,20.569,VALID,183.0,VALID,0.0,
2018-11-04, 07:15:06,VALID,917.469,VALID,0.0,VALID,96.373,VALID,106.961,VALID,20.563,VALID,114.0,VALID,0.0,
2018-11-04, 07:16:06,VALID,917.479,VALID,0.0,VALID,96.319,VALID,111.252,VALID,20.568,VALID,127.0,VALID,0.0,
2018-11-04, 07:17:06,VALID,917.507,VALID,0.0,VALID,96.127,VALID,116.037,VALID,20.578,VALID,107.0,VALID,0.0,
2018-11-04, 07:18:06,VALID,917.493,VALID,0.0,VALID,95.99,VALID,115.66,VALID,20.578,VALID,109.0,VALID,0.0,
2018-11-04, 07:19:06,VALID,917.485,VALID,0.0,VALID,95.959,VALID,119.18,VALID,20.606,VALID,177.0,VALID,0.0,
2018-11-04, 07:20:06,VALID,917.461,VALID,0.0,VALID,95.714,VALID,134.475,VALID,20.61,VALID,175.0,VALID,0.0,
2018-11-04, 07:21:06,VALID,917.483,VALID,0.0,VALID,95.595,VALID,127.652,VALID,20.639,VALID,167.0,VALID,0.0,
2018-11-04, 07:22:06,VALID,917.486,VALID,0.0,VALID,95.679,VALID,122.409,VALID,20.692,VALID,174.0,VALID,0.0,
2018-11-04, 07:23:06,VALID,917.486,VALID,0.0,VALID,95.416,VALID,122.444,VALID,20.699,VALID,113.0,VALID,0.0,
2018-11-04, 07:24:06,VALID,917.479,VALID,0.0,VALID,94.448,VALID,139.711,VALID,20.681,VALID,105.0,VALID,0.0,
2018-11-04, 07:25:06,VALID,917.499,VALID,0.0,VALID,94.87,VALID,163.042,VALID,20.75,VALID,115.0,VALID,0.0,
2018-11-04, 07:26:06,VALID,917.52,VALID,0.0,VALID,94.648,VALID,242.231,VALID,20.758,VALID,131.0,VALID,0.0,
2018-11-04, 07:27:06,VALID,917.543,VALID,0.0,VALID,94.884,VALID,255.373,VALID,20.846,VALID,153.0,VALID,0.0,
2018-11-04, 07:28:06,VALID,917.554,VALID,0.0,VALID,95.31,VALID,259.35,VALID,20.985,VALID,131.0,VALID,0.0,
2018-11-04, 07:29:06,VALID,917.584,VALID,0.0,VALID,95.295,VALID,262.59,VALID,21.13,VALID,123.0,VALID,0.0,
2018-11-04, 07:30:06,VALID,917.578,VALID,0.0,VALID,94.571,VALID,264.351,VALID,21.21,VALID,155.0,VALID,0.0,
2018-11-04, 07:31:06,VALID,917.601,VALID,0.0,VALID,93.851,VALID,272.515,VALID,21.261,VALID,151.0,VALID,0.0,
2018-11-04, 07:32:06,VALID,917.643,VALID,0.0,VALID,93.209,VALID,283.262,VALID,21.339,VALID,104.0,VALID,0.0,
2018-11-04, 07:33:06,VALID,917.677,VALID,0.0,VALID,92.002,VALID,291.07,VALID,21.428,VALID,110.0,VALID,0.0,
2018-11-04, 07:34:06,VALID,917.678,VALID,0.0,VALID,91.387,VALID,298.597,VALID,21.554,VALID,114.0,VALID,0.0,
2018-11-04, 07:35:06,VALID,917.695,VALID,0.0,VALID,90.788,VALID,307.893,VALID,21.684,VALID,92.0,VALID,0.0,
2018-11-04, 07:36:06,VALID,917.716,VALID,0.0,VALID,90.632,VALID,315.376,VALID,21.854,VALID,101.0,VALID,0.0,
2018-11-04, 07:37:06,VALID,917.731,VALID,0.0,VALID,90.773,VALID,320.751,VALID,22.007,VALID,95.0,VALID,0.0,
2018-11-04, 07:38:06,VALID,917.733,VALID,0.0,VALID,89.246,VALID,322.22,VALID,22.14,VALID,147.0,VALID,0.0,
2018-11-04, 07:39:06,VALID,917.766,VALID,0.0,VALID,88.097,VALID,324.321,VALID,22.117,VALID,133.0,VALID,0.0,
2018-11-04, 07:40:06,VALID,917.749,VALID,0.0,VALID,87.684,VALID,334.398,VALID,22.084,VALID,62.0,VALID,0.0,
2018-11-04, 07:41:06,VALID,917.759,VALID,0.0,VALID,88.5,VALID,344.881,VALID,22.161,VALID,158.0,VALID,0.0,
2018-11-04, 07:42:06,VALID,917.777,VALID,0.0,VALID,88.431,VALID,347.649,VALID,22.306,VALID,102.0,VALID,0.0,
2018-11-04, 07:43:06,VALID,917.792,VALID,0.0,VALID,88.534,VALID,347.089,VALID,22.505,VALID,72.0,VALID,0.0,
2018-11-04, 07:44:06,VALID,917.799,VALID,0.0,VALID,84.53,VALID,339.717,VALID,22.583,VALID,75.0,VALID,0.0,
2018-11-04, 07:45:06,VALID,917.793,VALID,0.0,VALID,84.622,VALID,348.666,VALID,22.631,VALID,60.0,VALID,0.0,
2018-11-04, 07:46:06,VALID,917.805,VALID,0.0,VALID,86.361,VALID,358.864,VALID,22.676,VALID,63.0,VALID,0.0,
2018-11-04, 07:47:06,VALID,917.81,VALID,0.0,VALID,82.953,VALID,350.948,VALID,22.627,VALID,55.0,VALID,0.0,
2018-11-04, 07:48:06,VALID,917.823,VALID,0.0,VALID,83.844,VALID,357.965,VALID,22.676,VALID,73.0,VALID,0.0,
2018-11-04, 07:49:06,VALID,917.816,VALID,0.0,VALID,82.387,VALID,365.202,VALID,22.695,VALID,57.0,VALID,0.0,
2018-11-04, 07:50:06,VALID,917.833,VALID,0.0,VALID,82.796,VALID,370.097,VALID,22.689,VALID,86.0,VALID,0.0,
2018-11-04, 07:51:06,VALID,917.826,VALID,0.0,VALID,82.199,VALID,379.966,VALID,22.652,VALID,88.0,VALID,0.0,
2018-11-04, 07:52:06,VALID,917.828,VALID,0.0,VALID,84.219,VALID,389.654,VALID,22.667,VALID,73.0,VALID,0.0,
2018-11-04, 07:53:06,VALID,917.83,VALID,0.0,VALID,86.427,VALID,397.91,VALID,22.853,VALID,76.0,VALID,0.0,
2018-11-04, 07:54:06,VALID,917.828,VALID,0.0,VALID,84.208,VALID,401.248,VALID,23.016,VALID,122.0,VALID,0.0,
2018-11-04, 07:55:06,VALID,917.864,VALID,0.0,VALID,83.139,VALID,412.395,VALID,23.131,VALID,155.0,VALID,0.0,
2018-11-04, 07:56:06,VALID,917.853,VALID,0.0,VALID,82.762,VALID,409.085,VALID,23.194,VALID,111.0,VALID,0.0,
2018-11-04, 07:57:06,VALID,917.868,VALID,0.0,VALID,82.869,VALID,395.56,VALID,23.273,VALID,121.0,VALID,0.0,
2018-11-04, 07:58:06,VALID,917.88,VALID,0.0,VALID,82.458,VALID,363.425,VALID,23.292,VALID,90.0,VALID,0.0,
2018-11-04, 07:59:06,VALID,917.882,VALID,0.0,VALID,81.69,VALID,387.453,VALID,23.251,VALID,64.0,VALID,0.0,
2018-11-04, 08:00:06,VALID,917.884,VALID,0.0,VALID,82.753,VALID,336.804,VALID,23.227,VALID,65.0,VALID,0.0,
2018-11-04, 08:01:06,VALID,917.883,VALID,0.0,VALID,82.276,VALID,348.494,VALID,23.167,VALID,65.0,VALID,0.0,
2018-11-04, 08:02:06,VALID,917.915,VALID,0.0,VALID,83.02,VALID,325.026,VALID,23.114,VALID,60.0,VALID,0.0,
2018-11-04, 08:03:06,VALID,917.936,VALID,0.0,VALID,84.273,VALID,326.138,VALID,23.144,VALID,72.0,VALID,0.0,
2018-11-04, 08:04:06,VALID,917.96,VALID,0.0,VALID,82.426,VALID,279.337,VALID,23.106,VALID,90.0,VALID,0.0,
2018-11-04, 08:05:06,VALID,917.956,VALID,0.0,VALID,82.347,VALID,192.074,VALID,23.014,VALID,85.0,VALID,0.0,
2018-11-04, 08:06:06,VALID,917.956,VALID,0.0,VALID,84.212,VALID,187.689,VALID,22.899,VALID,69.0,VALID,0.0,
2018-11-04, 08:07:06,VALID,917.971,VALID,0.0,VALID,86.196,VALID,185.722,VALID,22.902,VALID,80.0,VALID,0.0,
2018-11-04, 08:08:06,VALID,917.962,VALID,0.0,VALID,83.282,VALID,192.516,VALID,22.838,VALID,89.0,VALID,0.0,
2018-11-04, 08:09:06,VALID,917.978,VALID,0.0,VALID,85.444,VALID,227.627,VALID,22.806,VALID,63.0,VALID,0.0,
2018-11-04, 08:10:06,VALID,918.02,VALID,0.0,VALID,82.732,VALID,266.324,VALID,22.778,VALID,83.0,VALID,0.0,
2018-11-04, 08:11:06,VALID,918.01,VALID,0.0,VALID,83.85,VALID,277.206,VALID,22.769,VALID,123.0,VALID,0.0,
2018-11-04, 08:12:06,VALID,918.021,VALID,0.0,VALID,83.809,VALID,393.966,VALID,22.839,VALID,83.0,VALID,0.0,
2018-11-04, 08:13:06,VALID,918.003,VALID,0.0,VALID,83.61,VALID,485.197,VALID,22.908,VALID,81.0,VALID,0.0,
2018-11-04, 08:14:06,VALID,918.0,VALID,0.0,VALID,82.116,VALID,475.406,VALID,22.979,VALID,69.0,VALID,0.0,
2018-11-04, 08:15:06,VALID,917.99,VALID,0.0,VALID,83.234,VALID,471.607,VALID,23.154,VALID,108.0,VALID,0.0,
2018-11-04, 08:16:06,VALID,917.973,VALID,0.0,VALID,80.766,VALID,407.025,VALID,23.379,VALID,105.0,VALID,0.0,
2018-11-04, 08:17:06,VALID,917.957,VALID,0.0,VALID,81.4,VALID,438.889,VALID,23.436,VALID,83.0,VALID,0.0,
2018-11-04, 08:18:06,VALID,917.928,VALID,0.0,VALID,82.02,VALID,439.212,VALID,23.592,VALID,90.0,VALID,0.0,
2018-11-04, 08:19:06,VALID,917.906,VALID,0.0,VALID,79.437,VALID,355.823,VALID,23.638,VALID,97.0,VALID,0.0,
2018-11-04, 08:20:06,VALID,917.877,VALID,0.0,VALID,79.246,VALID,478.925,VALID,23.5,VALID,91.0,VALID,0.0,
2018-11-04, 08:21:06,VALID,917.857,VALID,0.0,VALID,80.501,VALID,492.947,VALID,23.56,VALID,93.0,VALID,0.0,
2018-11-04, 08:22:06,VALID,917.816,VALID,0.0,VALID,81.684,VALID,486.73,VALID,23.798,VALID,87.0,VALID,0.0,
2018-11-04, 08:23:06,VALID,917.793,VALID,0.0,VALID,80.204,VALID,484.518,VALID,24.103,VALID,97.0,VALID,0.0,
2018-11-04, 08:24:06,VALID,917.797,VALID,0.0,VALID,77.158,VALID,487.02,VALID,24.191,VALID,94.0,VALID,0.0,
2018-11-04, 08:25:06,VALID,917.794,VALID,0.0,VALID,76.718,VALID,493.21,VALID,24.04,VALID,73.0,VALID,0.0,
2018-11-04, 08:26:06,VALID,917.807,VALID,0.0,VALID,80.178,VALID,504.699,VALID,24.076,VALID,84.0,VALID,0.0,
2018-11-04, 08:27:06,VALID,917.816,VALID,0.0,VALID,78.791,VALID,506.882,VALID,24.324,VALID,130.0,VALID,0.0,
2018-11-04, 08:28:06,VALID,917.835,VALID,0.0,VALID,78.036,VALID,515.45,VALID,24.618,VALID,85.0,VALID,0.0,
2018-11-04, 08:29:06,VALID,917.857,VALID,0.0,VALID,78.238,VALID,520.452,VALID,24.889,VALID,87.0,VALID,0.0,
2018-11-04, 08:30:06,VALID,917.867,VALID,0.0,VALID,75.463,VALID,525.527,VALID,24.989,VALID,93.0,VALID,0.0,
2018-11-04, 08:31:06,VALID,917.896,VALID,0.0,VALID,75.057,VALID,533.347,VALID,24.943,VALID,62.0,VALID,0.0,
2018-11-04, 08:32:06,VALID,917.916,VALID,0.0,VALID,74.473,VALID,545.925,VALID,25.084,VALID,102.0,VALID,0.0,
2018-11-04, 08:33:06,VALID,917.935,VALID,0.0,VALID,73.605,VALID,562.226,VALID,25.07,VALID,96.0,VALID,0.0,
2018-11-04, 08:34:06,VALID,917.962,VALID,0.0,VALID,74.449,VALID,567.05,VALID,25.151,VALID,96.0,VALID,0.0,
2018-11-04, 08:35:06,VALID,917.951,VALID,0.0,VALID,75.064,VALID,572.495,VALID,25.003,VALID,99.0,VALID,0.0,
2018-11-04, 08:36:06,VALID,917.952,VALID,0.0,VALID,74.818,VALID,541.914,VALID,24.966,VALID,85.0,VALID,0.0,
2018-11-04, 08:37:06,VALID,917.928,VALID,0.0,VALID,75.75,VALID,579.828,VALID,24.965,VALID,56.0,VALID,0.0,
2018-11-04, 08:38:06,VALID,917.943,VALID,0.0,VALID,75.028,VALID,599.572,VALID,25.078,VALID,94.0,VALID,0.0,
2018-11-04, 08:39:06,VALID,917.941,VALID,0.0,VALID,74.171,VALID,606.233,VALID,24.834,VALID,92.0,VALID,0.0,
2018-11-04, 08:40:06,VALID,917.943,VALID,0.0,VALID,77.728,VALID,432.644,VALID,24.766,VALID,83.0,VALID,0.0,
2018-11-04, 08:41:06,VALID,917.95,VALID,0.0,VALID,75.796,VALID,371.546,VALID,24.542,VALID,94.0,VALID,0.0,
2018-11-04, 08:42:06,VALID,917.952,VALID,0.0,VALID,77.576,VALID,378.111,VALID,24.218,VALID,88.0,VALID,0.0,
2018-11-04, 08:43:06,VALID,917.941,VALID,0.0,VALID,80.2,VALID,453.031,VALID,24.164,VALID,48.0,VALID,0.0,
2018-11-04, 08:44:06,VALID,917.938,VALID,0.0,VALID,79.208,VALID,386.148,VALID,24.33,VALID,48.0,VALID,0.0,
2018-11-04, 08:45:06,VALID,917.962,VALID,0.0,VALID,78.787,VALID,552.557,VALID,24.384,VALID,51.0,VALID,0.0,
2018-11-04, 08:46:06,VALID,917.966,VALID,0.0,VALID,78.689,VALID,435.251,VALID,24.567,VALID,24.0,VALID,0.0,
2018-11-04, 08:47:06,VALID,917.962,VALID,0.0,VALID,77.245,VALID,326.947,VALID,24.695,VALID,39.0,VALID,0.0,
2018-11-04, 08:48:06,VALID,917.972,VALID,0.0,VALID,78.248,VALID,368.441,VALID,24.645,VALID,54.0,VALID,0.0,
2018-11-04, 08:49:06,VALID,917.993,VALID,0.0,VALID,77.71,VALID,526.763,VALID,24.724,VALID,89.0,VALID,0.0,
2018-11-04, 08:50:06,VALID,917.984,VALID,0.0,VALID,75.931,VALID,388.774,VALID,24.785,VALID,117.0,VALID,0.0,
2018-11-04, 08:51:06,VALID,917.954,VALID,0.0,VALID,76.021,VALID,547.889,VALID,24.785,VALID,97.0,VALID,0.0,
2018-11-04, 08:52:06,VALID,917.941,VALID,0.0,VALID,77.435,VALID,576.986,VALID,24.868,VALID,356.0,VALID,0.0,
2018-11-04, 08:53:06,VALID,917.939,VALID,0.0,VALID,77.281,VALID,546.809,VALID,25.116,VALID,14.0,VALID,0.08,
2018-11-04, 08:54:06,VALID,917.934,VALID,0.0,VALID,75.658,VALID,458.815,VALID,25.094,VALID,7.0,VALID,0.0,
2018-11-04, 08:55:06,VALID,917.949,VALID,0.0,VALID,77.284,VALID,276.648,VALID,24.93,VALID,64.0,VALID,0.0,
2018-11-04, 08:56:06,VALID,917.952,VALID,0.0,VALID,76.385,VALID,246.931,VALID,24.901,VALID,68.0,VALID,0.0,
2018-11-04, 08:57:06,VALID,917.964,VALID,0.0,VALID,76.75,VALID,239.101,VALID,24.708,VALID,46.0,VALID,0.0,
2018-11-04, 08:58:06,VALID,917.961,VALID,0.0,VALID,77.377,VALID,242.023,VALID,24.671,VALID,40.0,VALID,0.101,
2018-11-04, 08:59:06,VALID,917.935,VALID,0.0,VALID,76.6,VALID,251.136,VALID,24.533,VALID,55.0,VALID,1.488,
2018-11-04, 09:00:06,VALID,917.928,VALID,0.0,VALID,76.542,VALID,279.404,VALID,24.329,VALID,59.0,VALID,1.431,
2018-11-04, 09:01:06,VALID,917.921,VALID,0.0,VALID,78.677,VALID,470.488,VALID,24.235,VALID,51.0,VALID,0.458,
2018-11-04, 09:02:06,VALID,917.91,VALID,0.0,VALID,78.848,VALID,438.115,VALID,24.258,VALID,22.0,VALID,0.0,
2018-11-04, 09:03:06,VALID,917.916,VALID,0.0,VALID,76.302,VALID,330.068,VALID,24.13,VALID,8.0,VALID,0.0,
2018-11-04, 09:04:06,VALID,917.924,VALID,0.0,VALID,76.459,VALID,324.576,VALID,24.047,VALID,355.0,VALID,0.0,
2018-11-04, 09:05:06,VALID,917.935,VALID,0.0,VALID,76.839,VALID,304.733,VALID,24.151,VALID,337.0,VALID,0.0,
2018-11-04, 09:06:06,VALID,917.933,VALID,0.0,VALID,76.598,VALID,321.822,VALID,24.357,VALID,354.0,VALID,0.0,
2018-11-04, 09:07:06,VALID,917.929,VALID,0.0,VALID,76.773,VALID,344.824,VALID,24.485,VALID,32.0,VALID,0.0,
2018-11-04, 09:08:06,VALID,917.918,VALID,0.0,VALID,75.179,VALID,335.104,VALID,24.653,VALID,111.0,VALID,0.0,
2018-11-04, 09:09:06,VALID,917.892,VALID,0.0,VALID,73.864,VALID,326.688,VALID,24.787,VALID,56.0,VALID,0.646,
2018-11-04, 09:10:06,VALID,917.893,VALID,0.0,VALID,74.02,VALID,450.239,VALID,24.675,VALID,35.0,VALID,0.025,
2018-11-04, 09:11:06,VALID,917.891,VALID,0.0,VALID,76.31,VALID,824.051,VALID,24.656,VALID,14.0,VALID,0.0,
2018-11-04, 09:12:06,VALID,917.877,VALID,0.0,VALID,75.667,VALID,624.449,VALID,24.897,VALID,58.0,VALID,0.431,
2018-11-04, 09:13:06,VALID,917.857,VALID,0.0,VALID,74.592,VALID,739.347,VALID,24.893,VALID,14.0,VALID,0.0,
2018-11-04, 09:14:06,VALID,917.861,VALID,0.0,VALID,74.966,VALID,424.198,VALID,24.807,VALID,3.0,VALID,0.0,
2018-11-04, 09:15:06,VALID,917.837,VALID,0.0,VALID,74.874,VALID,373.447,VALID,24.764,VALID,27.0,VALID,0.0,
2018-11-04, 09:16:07,VALID,917.856,VALID,0.0,VALID,76.419,VALID,550.413,VALID,24.859,VALID,42.0,VALID,0.0,
2018-11-04, 09:17:07,VALID,917.856,VALID,0.0,VALID,75.162,VALID,763.379,VALID,25.223,VALID,88.0,VALID,0.0,
2018-11-04, 09:18:07,VALID,917.851,VALID,0.0,VALID,72.303,VALID,717.012,VALID,25.613,VALID,162.0,VALID,0.0,
2018-11-04, 09:19:07,VALID,917.849,VALID,0.0,VALID,69.612,VALID,790.289,VALID,25.524,VALID,210.0,VALID,0.0,
2018-11-04, 09:20:07,VALID,917.841,VALID,0.0,VALID,71.766,VALID,793.491,VALID,25.628,VALID,53.0,VALID,0.0,
2018-11-04, 09:21:07,VALID,917.834,VALID,0.0,VALID,73.659,VALID,817.521,VALID,25.77,VALID,33.0,VALID,0.0,
2018-11-04, 09:22:07,VALID,917.818,VALID,0.0,VALID,73.665,VALID,726.831,VALID,25.773,VALID,9.0,VALID,0.0,
2018-11-04, 09:23:07,VALID,917.822,VALID,0.0,VALID,72.563,VALID,624.214,VALID,25.683,VALID,35.0,VALID,0.0,
2018-11-04, 09:24:07,VALID,917.829,VALID,0.0,VALID,71.854,VALID,456.593,VALID,25.836,VALID,91.0,VALID,0.0,
2018-11-04, 09:25:07,VALID,917.83,VALID,0.0,VALID,70.038,VALID,343.603,VALID,25.704,VALID,92.0,VALID,0.0,
2018-11-04, 09:26:07,VALID,917.818,VALID,0.0,VALID,69.673,VALID,472.199,VALID,25.464,VALID,124.0,VALID,0.0,
2018-11-04, 09:27:07,VALID,917.804,VALID,0.0,VALID,71.594,VALID,416.579,VALID,25.362,VALID,131.0,VALID,0.0,
2018-11-04, 09:28:07,VALID,917.811,VALID,0.0,VALID,73.323,VALID,425.916,VALID,25.27,VALID,51.0,VALID,0.0,
2018-11-04, 09:29:07,VALID,917.798,VALID,0.0,VALID,73.295,VALID,406.42,VALID,25.069,VALID,27.0,VALID,0.0,
2018-11-04, 09:30:07,VALID,917.79,VALID,0.0,VALID,74.503,VALID,545.08,VALID,24.954,VALID,25.0,VALID,0.0,
2018-11-04, 09:31:07,VALID,917.827,VALID,0.0,VALID,75.59,VALID,556.632,VALID,24.933,VALID,54.0,VALID,0.0,
2018-11-04, 09:32:07,VALID,917.828,VALID,0.0,VALID,75.495,VALID,393.589,VALID,25.006,VALID,49.0,VALID,0.0,
2018-11-04, 09:33:07,VALID,917.838,VALID,0.0,VALID,76.846,VALID,303.003,VALID,24.979,VALID,52.0,VALID,0.0,
2018-11-04, 09:34:07,VALID,917.843,VALID,0.0,VALID,75.567,VALID,280.8,VALID,24.985,VALID,46.0,VALID,0.0,
2018-11-04, 09:35:07,VALID,917.856,VALID,0.0,VALID,75.333,VALID,273.216,VALID,24.947,VALID,59.0,VALID,0.0,
2018-11-04, 09:36:07,VALID,917.829,VALID,0.0,VALID,72.676,VALID,263.703,VALID,24.864,VALID,161.0,VALID,0.0,
2018-11-04, 09:37:07,VALID,917.822,VALID,0.0,VALID,73.199,VALID,249.834,VALID,24.731,VALID,33.0,VALID,0.0,
2018-11-04, 09:38:07,VALID,917.857,VALID,0.0,VALID,74.472,VALID,240.215,VALID,24.61,VALID,23.0,VALID,0.0,
2018-11-04, 09:39:07,VALID,917.9,VALID,0.0,VALID,75.221,VALID,242.987,VALID,24.369,VALID,27.0,VALID,0.0,
2018-11-04, 09:40:07,VALID,917.922,VALID,0.0,VALID,75.698,VALID,249.708,VALID,24.238,VALID,44.0,VALID,0.0,
2018-11-04, 09:41:07,VALID,917.976,VALID,0.0,VALID,75.582,VALID,267.189,VALID,24.105,VALID,69.0,VALID,0.0,
2018-11-04, 09:42:07,VALID,917.969,VALID,0.0,VALID,75.844,VALID,309.898,VALID,24.071,VALID,61.0,VALID,0.0,
2018-11-04, 09:43:07,VALID,917.937,VALID,0.0,VALID,77.004,VALID,269.427,VALID,24.087,VALID,55.0,VALID,0.0,
2018-11-04, 09:44:07,VALID,917.959,VALID,0.0,VALID,75.813,VALID,244.438,VALID,24.103,VALID,108.0,VALID,0.0,
2018-11-04, 09:45:07,VALID,917.952,VALID,0.0,VALID,74.363,VALID,218.568,VALID,24.183,VALID,112.0,VALID,0.0,
2018-11-04, 09:46:07,VALID,917.942,VALID,0.0,VALID,75.734,VALID,194.58,VALID,24.131,VALID,78.0,VALID,0.0,
2018-11-04, 09:47:07,VALID,917.947,VALID,0.0,VALID,76.635,VALID,176.756,VALID,24.089,VALID,18.0,VALID,0.0,
2018-11-04, 09:48:07,VALID,917.974,VALID,0.0,VALID,76.265,VALID,166.0,VALID,24.059,VALID,65.0,VALID,0.0,
2018-11-04, 09:49:07,VALID,918.022,VALID,0.0,VALID,77.354,VALID,166.095,VALID,24.001,VALID,52.0,VALID,0.0,
2018-11-04, 09:50:07,VALID,918.012,VALID,0.0,VALID,76.313,VALID,172.684,VALID,23.945,VALID,45.0,VALID,0.0,
2018-11-04, 09:51:07,VALID,918.05,VALID,0.0,VALID,75.392,VALID,180.641,VALID,23.924,VALID,54.0,VALID,0.0,
2018-11-04, 09:52:07,VALID,918.084,VALID,0.0,VALID,76.456,VALID,196.807,VALID,23.926,VALID,85.0,VALID,0.0,
2018-11-04, 09:53:07,VALID,918.1,VALID,0.0,VALID,76.677,VALID,218.768,VALID,23.908,VALID,81.0,VALID,0.0,
2018-11-04, 09:54:07,VALID,918.117,VALID,0.0,VALID,77.137,VALID,241.844,VALID,23.943,VALID,77.0,VALID,0.0,
2018-11-04, 09:55:07,VALID,918.099,VALID,0.0,VALID,76.687,VALID,263.06,VALID,23.973,VALID,58.0,VALID,0.0,
2018-11-04, 09:56:07,VALID,918.119,VALID,0.0,VALID,77.247,VALID,276.462,VALID,23.943,VALID,64.0,VALID,0.0,
2018-11-04, 09:57:07,VALID,918.125,VALID,0.0,VALID,78.359,VALID,300.061,VALID,23.946,VALID,52.0,VALID,0.0,
2018-11-04, 09:58:07,VALID,918.142,VALID,0.0,VALID,77.881,VALID,313.176,VALID,23.975,VALID,72.0,VALID,0.0,
2018-11-04, 09:59:07,VALID,918.121,VALID,0.0,VALID,74.505,VALID,543.878,VALID,24.021,VALID,105.0,VALID,0.0,
2018-11-04, 10:00:07,VALID,918.133,VALID,0.0,VALID,75.512,VALID,832.172,VALID,24.258,VALID,68.0,VALID,0.0,
2018-11-04, 10:01:07,VALID,918.137,VALID,0.0,VALID,75.884,VALID,853.615,VALID,24.571,VALID,23.0,VALID,0.0,
2018-11-04, 10:02:07,VALID,918.096,VALID,0.0,VALID,74.55,VALID,815.916,VALID,24.739,VALID,23.0,VALID,0.0,
2018-11-04, 10:03:07,VALID,918.114,VALID,0.0,VALID,72.324,VALID,800.431,VALID,24.605,VALID,46.0,VALID,0.0,
2018-11-04, 10:04:07,VALID,918.109,VALID,0.0,VALID,73.925,VALID,793.46,VALID,24.73,VALID,17.0,VALID,0.0,
2018-11-04, 10:05:07,VALID,918.096,VALID,0.0,VALID,74.33,VALID,783.516,VALID,24.991,VALID,19.0,VALID,0.0,
2018-11-04, 10:06:07,VALID,918.08,VALID,0.0,VALID,73.752,VALID,815.876,VALID,25.172,VALID,14.0,VALID,0.0,
2018-11-04, 10:07:07,VALID,918.081,VALID,0.0,VALID,72.943,VALID,515.45,VALID,25.218,VALID,36.0,VALID,0.0,
2018-11-04, 10:08:07,VALID,918.065,VALID,0.0,VALID,74.406,VALID,863.958,VALID,25.411,VALID,114.0,VALID,0.0,
2018-11-04, 10:09:07,VALID,918.068,VALID,0.0,VALID,72.249,VALID,845.133,VALID,25.779,VALID,94.0,VALID,0.0,
2018-11-04, 10:10:07,VALID,918.067,VALID,0.0,VALID,69.292,VALID,617.16,VALID,25.754,VALID,99.0,VALID,0.0,
2018-11-04, 10:11:07,VALID,918.057,VALID,0.0,VALID,69.609,VALID,411.222,VALID,25.588,VALID,106.0,VALID,0.0,
2018-11-04, 10:12:07,VALID,918.039,VALID,0.0,VALID,71.53,VALID,362.195,VALID,25.544,VALID,130.0,VALID,0.0,
2018-11-04, 10:13:07,VALID,918.016,VALID,0.0,VALID,69.096,VALID,356.537,VALID,25.476,VALID,106.0,VALID,0.0,
2018-11-04, 10:14:07,VALID,918.03,VALID,0.0,VALID,71.316,VALID,368.555,VALID,25.302,VALID,71.0,VALID,0.0,
2018-11-04, 10:15:07,VALID,918.049,VALID,0.0,VALID,72.433,VALID,389.143,VALID,25.051,VALID,75.0,VALID,0.0,
2018-11-04, 10:16:07,VALID,918.049,VALID,0.0,VALID,70.003,VALID,389.081,VALID,24.846,VALID,92.0,VALID,0.0,
2018-11-04, 10:17:07,VALID,918.022,VALID,0.0,VALID,70.72,VALID,407.691,VALID,24.617,VALID,85.0,VALID,0.0,
2018-11-04, 10:18:07,VALID,918.013,VALID,0.0,VALID,73.333,VALID,401.78,VALID,24.747,VALID,78.0,VALID,0.0,
2018-11-04, 10:19:07,VALID,918.003,VALID,0.0,VALID,71.421,VALID,401.842,VALID,24.956,VALID,101.0,VALID,0.0,
2018-11-04, 10:20:07,VALID,917.992,VALID,0.0,VALID,71.256,VALID,390.852,VALID,24.957,VALID,109.0,VALID,0.0,
2018-11-04, 10:21:07,VALID,917.982,VALID,0.0,VALID,73.46,VALID,495.092,VALID,25.048,VALID,64.0,VALID,0.0,
2018-11-04, 10:22:07,VALID,917.976,VALID,0.0,VALID,71.963,VALID,848.22,VALID,25.118,VALID,100.0,VALID,0.0,
2018-11-04, 10:23:07,VALID,917.945,VALID,0.0,VALID,72.259,VALID,516.195,VALID,25.206,VALID,52.0,VALID,0.0,
2018-11-04, 10:24:07,VALID,917.946,VALID,0.0,VALID,71.102,VALID,436.851,VALID,25.227,VALID,90.0,VALID,0.0,
2018-11-04, 10:25:07,VALID,917.943,VALID,0.0,VALID,69.797,VALID,426.708,VALID,25.182,VALID,102.0,VALID,0.0,
2018-11-04, 10:26:07,VALID,917.949,VALID,0.0,VALID,68.196,VALID,525.42,VALID,24.998,VALID,82.0,VALID,0.0,
2018-11-04, 10:27:07,VALID,917.926,VALID,0.0,VALID,70.527,VALID,469.887,VALID,24.817,VALID,58.0,VALID,0.0,
2018-11-04, 10:28:07,VALID,917.92,VALID,0.0,VALID,72.639,VALID,412.616,VALID,24.868,VALID,45.0,VALID,0.0,
2018-11-04, 10:29:07,VALID,917.906,VALID,0.0,VALID,73.348,VALID,534.559,VALID,25.03,VALID,75.0,VALID,0.0,
2018-11-04, 10:30:07,VALID,917.892,VALID,0.0,VALID,72.362,VALID,645.399,VALID,25.182,VALID,59.0,VALID,0.0,
2018-11-04, 10:31:07,VALID,917.88,VALID,0.0,VALID,71.069,VALID,407.219,VALID,25.478,VALID,47.0,VALID,0.0,
2018-11-04, 10:32:07,VALID,917.874,VALID,0.0,VALID,71.128,VALID,456.051,VALID,25.704,VALID,98.0,VALID,0.0,
2018-11-04, 10:33:07,VALID,917.865,VALID,0.0,VALID,70.843,VALID,808.766,VALID,25.916,VALID,58.0,VALID,0.0,
2018-11-04, 10:34:07,VALID,917.856,VALID,0.0,VALID,69.189,VALID,877.719,VALID,25.966,VALID,16.0,VALID,0.0,
2018-11-04, 10:35:07,VALID,917.85,VALID,0.0,VALID,70.081,VALID,879.283,VALID,26.051,VALID,28.0,VALID,0.0,
2018-11-04, 10:36:07,VALID,917.861,VALID,0.0,VALID,69.996,VALID,880.576,VALID,26.189,VALID,83.0,VALID,0.0,
2018-11-04, 10:37:07,VALID,917.838,VALID,0.0,VALID,66.691,VALID,876.379,VALID,26.304,VALID,76.0,VALID,0.0,
2018-11-04, 10:38:07,VALID,917.845,VALID,0.0,VALID,66.829,VALID,858.115,VALID,26.092,VALID,42.0,VALID,0.0,
2018-11-04, 10:39:07,VALID,917.838,VALID,0.0,VALID,68.381,VALID,850.454,VALID,26.105,VALID,53.0,VALID,0.0,
2018-11-04, 10:40:07,VALID,917.851,VALID,0.0,VALID,67.382,VALID,878.518,VALID,26.07,VALID,46.0,VALID,0.0,